TimeCST,TemperatureF,Dew PointF,Humidity,Sea Level PressureIn,VisibilityMPH,Wind Direction,Wind SpeedMPH,Gust SpeedMPH,PrecipitationIn,Events,Conditions,WindDirDegrees,DateUTC
12:15 AM,48.7,26.6,42,30.32,10.0,North,8.1,-,N/A,,Clear,350,2013-03-06 06:15:00
12:35 AM,47.8,26.6,44,30.32,10.0,North,6.9,-,N/A,,Clear,360,2013-03-06 06:35:00
12:55 AM,46.9,26.6,45,30.32,10.0,North,6.9,-,N/A,,Clear,360,2013-03-06 06:55:00
1:15 AM,45.9,26.8,47,30.32,10.0,North,9.2,-,N/A,,Clear,360,2013-03-06 07:15:00
1:35 AM,45.5,26.8,48,30.32,10.0,North,8.1,-,N/A,,Clear,360,2013-03-06 07:35:00
1:55 AM,44.8,26.8,49,30.32,10.0,North,8.1,-,N/A,,Clear,360,2013-03-06 07:55:00
2:15 AM,43.7,26.8,51,30.32,10.0,North,5.8,-,N/A,,Clear,360,2013-03-06 08:15:00
2:35 AM,42.8,26.4,52,30.32,10.0,North,6.9,-,N/A,,Clear,360,2013-03-06 08:35:00
2:55 AM,41.7,26.4,55,30.32,10.0,North,3.5,-,N/A,,Clear,350,2013-03-06 08:55:00
3:15 AM,41.9,26.1,53,30.32,10.0,North,3.5,-,N/A,,Clear,360,2013-03-06 09:15:00
3:35 AM,41.0,26.1,55,30.32,10.0,North,4.6,-,N/A,,Clear,360,2013-03-06 09:35:00
3:55 AM,39.7,26.6,59,30.32,10.0,North,4.6,-,N/A,,Clear,10,2013-03-06 09:55:00
4:15 AM,39.9,26.8,59,30.32,10.0,North,6.9,-,N/A,,Clear,360,2013-03-06 10:15:00
4:35 AM,39.2,27.0,62,30.32,10.0,North,8.1,-,N/A,,Clear,360,2013-03-06 10:35:00
4:55 AM,39.2,27.0,62,30.33,10.0,North,8.1,-,N/A,,Clear,360,2013-03-06 10:55:00
5:15 AM,37.4,28.4,70,30.33,10.0,North,8.1,-,N/A,,Clear,360,2013-03-06 11:15:00
5:35 AM,38.7,27.0,63,30.34,10.0,North,6.9,-,N/A,,Clear,360,2013-03-06 11:35:00
5:55 AM,37.9,27.0,65,30.34,10.0,North,3.5,-,N/A,,Clear,10,2013-03-06 11:55:00
6:15 AM,37.9,26.4,63,30.35,10.0,North,3.5,-,N/A,,Clear,10,2013-03-06 12:15:00
6:35 AM,38.1,26.2,62,30.36,10.0,North,3.5,-,N/A,,Clear,360,2013-03-06 12:35:00
6:55 AM,32.0,25.9,78,30.37,10.0,Calm,Calm,-,N/A,,Clear,0,2013-03-06 12:55:00
7:15 AM,34.2,27.0,75,30.38,10.0,Calm,Calm,-,N/A,,Clear,0,2013-03-06 13:15:00
7:35 AM,38.3,27.9,66,30.39,10.0,Calm,Calm,-,N/A,,Clear,0,2013-03-06 13:35:00
7:55 AM,41.7,30.2,64,30.40,10.0,Calm,Calm,-,N/A,,Clear,0,2013-03-06 13:55:00
8:15 AM,45.3,30.0,55,30.41,10.0,NNE,4.6,-,N/A,,Clear,30,2013-03-06 14:15:00
8:35 AM,48.2,28.8,47,30.41,10.0,NE,8.1,-,N/A,,Clear,40,2013-03-06 14:35:00
8:55 AM,50.2,28.8,44,30.41,10.0,NE,8.1,-,N/A,,Clear,50,2013-03-06 14:55:00
9:15 AM,52.0,27.3,39,30.42,10.0,ENE,12.7,-,N/A,,Clear,60,2013-03-06 15:15:00
9:35 AM,53.4,27.1,36,30.43,10.0,NE,6.9,-,N/A,,Clear,40,2013-03-06 15:35:00
9:55 AM,55.4,26.4,33,30.43,10.0,ENE,13.8,-,N/A,,Clear,60,2013-03-06 15:55:00
10:15 AM,56.5,25.9,31,30.42,10.0,NE,9.2,-,N/A,,Clear,40,2013-03-06 16:15:00
10:35 AM,57.7,26.1,30,30.41,10.0,NE,9.2,-,N/A,,Clear,40,2013-03-06 16:35:00
10:55 AM,58.3,26.8,30,30.42,10.0,Calm,Calm,-,N/A,,Clear,0,2013-03-06 16:55:00
11:15 AM,58.5,26.6,30,30.41,10.0,ENE,3.5,-,N/A,,Clear,70,2013-03-06 17:15:00
11:35 AM,59.9,25.5,27,30.40,10.0,East,5.8,-,N/A,,Clear,80,2013-03-06 17:35:00
11:55 AM,62.2,26.2,25,30.39,10.0,NE,3.5,-,N/A,,Clear,40,2013-03-06 17:55:00
12:15 PM,63.9,27.3,25,30.38,10.0,Calm,Calm,-,N/A,,Clear,0,2013-03-06 18:15:00
12:35 PM,64.6,27.0,24,30.37,10.0,East,4.6,-,N/A,,Clear,90,2013-03-06 18:35:00
12:55 PM,65.5,25.7,22,30.35,10.0,NNW,3.5,-,N/A,,Clear,340,2013-03-06 18:55:00
1:15 PM,66.2,26.1,22,30.34,10.0,East,4.6,-,N/A,,Clear,80,2013-03-06 19:15:00
1:35 PM,67.1,25.5,21,30.33,10.0,Calm,Calm,-,N/A,,Clear,0,2013-03-06 19:35:00
1:55 PM,68.0,25.3,20,30.31,10.0,Calm,Calm,-,N/A,,Clear,0,2013-03-06 19:55:00
2:15 PM,69.1,25.0,19,30.30,10.0,ENE,4.6,-,N/A,,Clear,60,2013-03-06 20:15:00
2:35 PM,69.4,24.3,18,30.30,10.0,North,3.5,-,N/A,,Clear,360,2013-03-06 20:35:00
2:55 PM,69.6,25.3,19,30.28,10.0,WNW,3.5,-,N/A,,Clear,290,2013-03-06 20:55:00
3:15 PM,70.2,26.1,19,30.27,10.0,SE,3.5,-,N/A,,Clear,130,2013-03-06 21:15:00
3:35 PM,70.3,25.7,19,30.27,10.0,Calm,Calm,-,N/A,,Clear,0,2013-03-06 21:35:00
3:55 PM,71.1,25.0,18,30.27,10.0,SE,3.5,-,N/A,,Clear,140,2013-03-06 21:55:00
4:15 PM,68.7,36.0,30,30.27,10.0,SSE,11.5,-,N/A,,Clear,160,2013-03-06 22:15:00
4:35 PM,66.2,39.7,38,30.26,10.0,SSE,9.2,-,N/A,,Clear,160,2013-03-06 22:35:00
4:55 PM,63.9,41.0,43,30.26,10.0,South,11.5,16.1,N/A,,Clear,170,2013-03-06 22:55:00
5:15 PM,62.6,41.5,46,30.25,10.0,SSE,9.2,-,N/A,,Clear,160,2013-03-06 23:15:00
5:35 PM,59.9,40.8,49,30.25,10.0,SSE,9.2,-,N/A,,Clear,150,2013-03-06 23:35:00
5:55 PM,58.1,41.0,53,30.26,10.0,SSE,8.1,-,N/A,,Clear,160,2013-03-06 23:55:00
6:15 PM,56.5,41.0,56,30.27,10.0,SSE,8.1,-,N/A,,Clear,160,2013-03-07 00:15:00
6:35 PM,55.2,41.4,60,30.26,10.0,SSE,5.8,-,N/A,,Clear,150,2013-03-07 00:35:00
6:55 PM,53.6,41.4,63,30.26,10.0,Calm,Calm,-,N/A,,Clear,0,2013-03-07 00:55:00
7:15 PM,53.1,41.7,65,30.26,10.0,SSE,3.5,-,N/A,,Clear,150,2013-03-07 01:15:00
7:35 PM,53.4,42.3,66,30.26,10.0,SE,4.6,-,N/A,,Clear,140,2013-03-07 01:35:00
7:55 PM,53.4,42.8,67,30.28,10.0,Calm,Calm,-,N/A,,Clear,0,2013-03-07 01:55:00
8:15 PM,52.5,43.0,70,30.28,10.0,West,4.6,-,N/A,,Clear,270,2013-03-07 02:15:00
8:35 PM,51.3,43.3,74,30.28,10.0,WSW,3.5,-,N/A,,Clear,250,2013-03-07 02:35:00
8:55 PM,51.3,43.2,74,30.27,10.0,Calm,Calm,-,N/A,,Clear,0,2013-03-07 02:55:00
9:15 PM,50.2,42.8,76,30.27,10.0,Calm,Calm,-,N/A,,Clear,0,2013-03-07 03:15:00
9:35 PM,48.9,43.0,80,30.27,10.0,Calm,Calm,-,N/A,,Clear,0,2013-03-07 03:35:00
9:55 PM,49.6,43.2,78,30.27,10.0,Calm,Calm,-,N/A,,Clear,0,2013-03-07 03:55:00
10:15 PM,49.6,43.2,78,30.28,10.0,WSW,3.5,-,N/A,,Clear,240,2013-03-07 04:15:00
10:35 PM,49.3,43.3,80,30.29,10.0,SW,3.5,-,N/A,,Clear,230,2013-03-07 04:35:00
10:55 PM,48.7,42.8,80,30.28,10.0,Calm,Calm,-,N/A,,Clear,0,2013-03-07 04:55:00
11:15 PM,48.0,42.4,81,30.27,10.0,Calm,Calm,-,N/A,,Clear,0,2013-03-07 05:15:00
11:35 PM,46.8,42.4,85,30.27,10.0,Calm,Calm,-,N/A,,Clear,0,2013-03-07 05:35:00
11:55 PM,46.0,41.9,85,30.26,10.0,Calm,Calm,-,N/A,,Clear,0,2013-03-07 05:55:00